Clinton, British Columbia

11:09 PM PDT on September 22, 2017 (GMT -0700)
Clinton

Weather History for CWCL - November, 2013

Change the Weather History Date:

Monday, November 18, 2013

  Actual Average Record
Temperature  
Mean Temperature 24 °F -  
Max Temperature 30 °F 27 °F 46 °F (2008)
Min Temperature 18 °F 16 °F -9 °F (1996)
Degree Days  
Heating Degree Days 41    
Moisture  
Dew Point 18 °F    
Average Humidity 78    
Maximum Humidity 86    
Minimum Humidity 58    
Precipitation  
Precipitation 0.04 in - - ()
Sea Level Pressure  
Sea Level Pressure 29.66 in    
Wind  
Wind Speed 5 mph ()    
Max Wind Speed 12 mph    
Max Gust Speed 18 mph    
Visibility 4.8 miles    
Events      
Averages and records for this station are not official NWS values.
T = Trace of Precipitation, MM = Missing Value Source: Averaged Metar Reports

Daily Weather History Graph

Daily Weather History Graph

Search for Another Location

Airport or City:

Trip Planner

Search our weather history database for the weather conditions in past years. The results will help you decide how hot, cold, wet, or windy it might be!

Date:

Astronomy

Nov. 18, 2013 Rise Set
Actual Time 7:28 AM PST 4:13 PM PST
Civil Twilight 6:51 AM PST 4:50 PM PST
Nautical Twilight 6:10 AM PST 5:31 PM PST
Astronomical Twilight 5:31 AM PST 6:10 PM PST
Moon 5:17 PM PST (11/18) 8:23 AM PST (11/18)
Length of Visible Light 9h 59m
Length of Day
8h 45m
Full, 99% of the Moon is Illuminated
Nov 18
Full
Nov 25
Last Quarter
Dec 2
New
Dec 9
First Quarter
Dec 17
Full

Hourly Weather History & Observations

Time (PST) Temp. Windchill Dew Point Humidity Pressure Visibility Wind Dir Wind Speed Gust Speed Precip Events Conditions
12:00 AM 23.0 °F 18.4 °F 19.4 °F 86% 29.76 in 5.0 mi WSW 3.5 mph - N/A   Mostly Cloudy
12:12 AM 23.0 °F - 17.6 °F 80% 29.62 in 8.0 mi South 2.3 mph - N/A   Clear
12:46 AM 23.0 °F 15.8 °F 17.6 °F 80% 29.62 in 9.0 mi SSW 5.8 mph - N/A   Mostly Cloudy
12:47 AM 23.0 °F - 17.6 °F 80% 29.62 in 9.0 mi North - - N/A   Mostly Cloudy
1:00 AM 23 °F - 19 °F 79% 29.75 in 9 mi SW 4.6 mph - -   Overcast
1:00 AM 23.0 °F 18.4 °F 19.4 °F 86% 29.75 in 9.0 mi SW 3.5 mph - N/A   Overcast
1:34 AM 24.8 °F 17.9 °F 21.2 °F 86% 29.62 in 8.0 mi SSW 5.8 mph - N/A   Scattered Clouds
1:44 AM 24.8 °F 19.1 °F 21.2 °F 86% 29.62 in 8.0 mi SSW 4.6 mph - N/A   Overcast
2:00 AM 24.8 °F 17.9 °F 21.2 °F 86% 29.75 in 9.0 mi SW 5.8 mph - N/A   Mostly Cloudy
2:58 AM 23.0 °F 15.8 °F 19.4 °F 86% 29.64 in 9.0 mi SW 5.8 mph - N/A   Scattered Clouds
3:00 AM 23.0 °F 15.8 °F 19.4 °F 86% 29.77 in 9.0 mi SW 5.8 mph - N/A   Scattered Clouds
3:03 AM 23.0 °F - 19.4 °F 86% 29.63 in 9.0 mi WSW 2.3 mph - N/A   Mostly Cloudy
3:09 AM 23.0 °F 17.0 °F 19.4 °F 86% 29.63 in 9.0 mi SW 4.6 mph - N/A   Partly Cloudy
3:20 AM 23.0 °F 15.8 °F 17.6 °F 80% 29.63 in 9.0 mi SSW 5.8 mph - N/A   Mostly Cloudy
3:21 AM 23.0 °F 17.0 °F 17.6 °F 80% 29.63 in 9.0 mi SW 4.6 mph - N/A   Overcast
3:42 AM 23.0 °F 18.4 °F 17.6 °F 80% 29.64 in 9.0 mi WSW 3.5 mph - N/A   Clear
4:00 AM 22 °F - 18 °F 80% 29.78 in 9 mi SSW 4.6 mph - -  
4:00 AM 23.0 °F 15.8 °F 17.6 °F 80% 29.78 in 9.0 mi SW 5.8 mph - N/A   Clear
4:31 AM 23.0 °F 17.0 °F 17.6 °F 80% 29.64 in 8.0 mi South 4.6 mph - N/A   Mostly Cloudy
4:36 AM 23.0 °F 17.0 °F 17.6 °F 80% 29.64 in 2.2 mi SSW 4.6 mph - N/A   Overcast
4:42 AM 23.0 °F 18.4 °F 17.6 °F 80% 29.64 in 1.4 mi SSW 3.5 mph - N/A   Overcast
4:55 AM 21.2 °F 14.9 °F 17.6 °F 86% 29.65 in 2.5 mi SW 4.6 mph - N/A   Mostly Cloudy
5:00 AM 23.0 °F 18.4 °F 17.6 °F 80% 29.79 in 4.0 mi SSW 3.5 mph - N/A   Overcast
5:06 AM 23.0 °F 18.4 °F 17.6 °F 80% 29.64 in 6.0 mi SSW 3.5 mph - N/A   Partly Cloudy
5:10 AM 21.2 °F 14.9 °F 17.6 °F 86% 29.64 in 7.0 mi SW 4.6 mph - N/A   Mostly Cloudy
5:17 AM 21.2 °F - 17.6 °F 86% 29.64 in 9.0 mi Calm Calm - N/A   Clear
5:56 AM 21.2 °F 16.4 °F 15.8 °F 80% 29.64 in 9.0 mi WSW 3.5 mph - N/A   Mostly Cloudy
6:00 AM 21.2 °F 14.9 °F 15.8 °F 80% 29.80 in 9.0 mi South 4.6 mph - N/A   Clear
6:24 AM 21.2 °F 14.9 °F 15.8 °F 80% 29.65 in 9.0 mi WSW 4.6 mph - N/A   Mostly Cloudy
6:29 AM 21.2 °F - 15.8 °F 80% 29.65 in 9.0 mi WSW 2.3 mph - N/A   Clear
7:00 AM 21 °F - 16 °F 71% 29.81 in 9 mi SSW 4.6 mph - -  
7:00 AM 21.2 °F 13.6 °F 15.8 °F 80% 29.81 in 9.0 mi SW 5.8 mph - N/A   Clear
8:00 AM 23.0 °F 15.8 °F 17.6 °F 80% 29.81 in 9.0 mi SSW 5.8 mph - N/A   Clear
9:00 AM 24.8 °F 19.1 °F 19.4 °F 80% 29.80 in 9.0 mi SSW 4.6 mph - N/A   Clear
10:00 AM 25 °F - 21 °F 79% 29.80 in 9 mi WSW 2.3 mph - -  
10:00 AM 24.8 °F - 21.2 °F 86% 29.80 in 9.0 mi West 2.3 mph - N/A   Clear
11:00 AM 26.6 °F - 23.0 °F 86% 29.79 in 9.0 mi Calm Calm - N/A   Clear
12:00 PM 28.4 °F - 24.8 °F 86% 29.78 in 9.0 mi Calm Calm - N/A   Mostly Cloudy
1:00 PM 29 °F - 22 °F 66% 29.77 in 9 mi NNW 3.5 mph - -   Overcast
1:00 PM 30.2 °F - 23.0 °F 75% 29.77 in 9.0 mi NNW 2.3 mph - N/A   Overcast
1:09 PM 28.4 °F 23.3 °F 21.2 °F 74% 29.65 in 9.0 mi North 4.6 mph - N/A   Overcast
1:31 PM 28.4 °F 21.2 °F 23.0 °F 80% 29.64 in 9.0 mi NW 6.9 mph - N/A   Overcast
1:39 PM 28.4 °F 21.2 °F 23.0 °F 80% 29.64 in 2.4 mi NNW 6.9 mph - N/A   Mostly Cloudy
1:44 PM 28.4 °F 22.2 °F 23.0 °F 80% 29.64 in 1.4 mi NW 5.8 mph - N/A   Mostly Cloudy
1:49 PM 28.4 °F 20.4 °F 23.0 °F 80% 29.64 in 1.1 mi NW 8.1 mph - N/A   Scattered Clouds
1:55 PM 28.4 °F 21.2 °F 21.2 °F 74% 29.64 in 1.4 mi NW 6.9 mph - N/A   Mostly Cloudy
1:57 PM 28.4 °F 19.1 °F 21.2 °F 74% 29.63 in 1.4 mi NW 10.4 mph - N/A   Overcast
2:00 PM 28.4 °F 20.4 °F 21.2 °F 74% 29.76 in 2.0 mi NW 8.1 mph - N/A   Overcast
2:05 PM 28.4 °F 23.3 °F 21.2 °F 74% 29.63 in 1.2 mi NW 4.6 mph - N/A   Mostly Cloudy
2:08 PM 28.4 °F 20.4 °F 23.0 °F 80% 29.63 in 1.0 mi NNW 8.1 mph - N/A   Mostly Cloudy
2:11 PM 28.4 °F 21.2 °F 21.2 °F 74% 29.63 in 0.6 mi NW 6.9 mph - N/A   Mostly Cloudy
2:12 PM 28.4 °F 21.2 °F 23.0 °F 80% 29.63 in 0.6 mi NW 6.9 mph - N/A   Scattered Clouds
2:31 PM 26.6 °F 16.8 °F 21.2 °F 80% 29.63 in 0.6 mi NW 10.4 mph 17.3 mph N/A   Mostly Cloudy
2:37 PM 26.6 °F 18.2 °F 21.2 °F 80% 29.63 in 1.0 mi NW 8.1 mph 17.3 mph N/A   Overcast
2:44 PM 26.6 °F 16.8 °F 21.2 °F 80% 29.63 in 1.0 mi NW 10.4 mph 17.3 mph N/A   Overcast
2:59 PM 26.6 °F 16.8 °F 21.2 °F 80% 29.62 in 1.0 mi NW 10.4 mph 17.3 mph N/A   Mostly Cloudy
3:00 PM 26.6 °F 16.2 °F 21.2 °F 80% 29.76 in 1.0 mi NW 11.5 mph 17.3 mph N/A   Mostly Cloudy
3:10 PM 26.6 °F 19.1 °F 21.2 °F 80% 29.62 in 1.4 mi NW 6.9 mph 17.3 mph N/A   Overcast
3:19 PM 26.6 °F 19.1 °F 21.2 °F 80% 29.62 in 1.0 mi NW 6.9 mph - N/A   Overcast
3:28 PM 26.6 °F 19.1 °F 21.2 °F 80% 29.63 in 0.8 mi NNW 6.9 mph 17.3 mph N/A   Scattered Clouds
3:29 PM 26.6 °F 20.0 °F 19.4 °F 74% 29.63 in 0.6 mi NNW 5.8 mph 17.3 mph N/A   Partly Cloudy
3:44 PM 26.6 °F 19.1 °F 19.4 °F 74% 29.63 in 1.0 mi NW 6.9 mph - N/A   Partly Cloudy
3:51 PM 24.8 °F 19.1 °F 19.4 °F 80% 29.63 in 1.4 mi NNW 4.6 mph - N/A   Mostly Cloudy
4:00 PM 25 °F - 19 °F 71% 29.77 in 1 mi NNW 6.9 mph - -  
4:00 PM 24.8 °F 15.3 °F 19.4 °F 80% 29.77 in 1.1 mi North 9.2 mph - N/A   Unknown
4:19 PM 24.8 °F 17.9 °F 17.6 °F 74% 29.62 in 1.5 mi North 5.8 mph - N/A   Overcast
4:27 PM 24.8 °F 16.9 °F 17.6 °F 74% 29.62 in 2.0 mi NNW 6.9 mph - N/A   Mostly Cloudy
4:30 PM 24.8 °F 16.9 °F 17.6 °F 74% 29.62 in 2.1 mi NNW 6.9 mph - N/A   Overcast
4:31 PM 24.8 °F 17.9 °F 17.6 °F 74% 29.62 in 2.1 mi North 5.8 mph - N/A   Overcast
4:42 PM 23.0 °F 13.9 °F 17.6 °F 80% 29.62 in 1.4 mi North 8.1 mph - N/A   Overcast
4:48 PM 23.0 °F 14.7 °F 17.6 °F 80% 29.62 in 1.4 mi North 6.9 mph - N/A   Overcast
5:00 PM 23.0 °F 15.8 °F 17.6 °F 80% 29.76 in 1.2 mi NNW 5.8 mph - N/A   Overcast
5:30 PM 21.2 °F 11.7 °F 15.8 °F 80% 29.61 in 1.4 mi NNW 8.1 mph - N/A   Overcast
5:36 PM 21.2 °F 13.6 °F 15.8 °F 80% 29.61 in 1.5 mi NNW 5.8 mph - N/A   Overcast
5:37 PM 21.2 °F 14.9 °F 15.8 °F 80% 29.61 in 1.4 mi NNW 4.6 mph - N/A   Overcast
5:50 PM 21.2 °F 11.7 °F 15.8 °F 80% 29.61 in 1.2 mi NW 8.1 mph 18.4 mph N/A   Overcast
6:00 PM 21.2 °F 13.6 °F 14.0 °F 74% 29.75 in 1.5 mi NW 5.8 mph - N/A   Overcast
6:03 PM 21.2 °F 11.7 °F 14.0 °F 74% 29.60 in 1.5 mi NNW 8.1 mph - N/A   Overcast
6:04 PM 21.2 °F 12.6 °F 14.0 °F 74% 29.60 in 1.4 mi NNW 6.9 mph - N/A   Overcast
6:27 PM 21.2 °F 10.9 °F 14.0 °F 74% 29.60 in 1.1 mi NNW 9.2 mph - N/A   Overcast
7:00 PM 20 °F - 14 °F 67% 29.74 in 2 mi NW 6.9 mph - -   Overcast
7:00 PM 21.2 °F 13.6 °F 14.0 °F 74% 29.74 in 2.0 mi NW 5.8 mph - N/A   Overcast
7:18 PM 19.4 °F 12.8 °F 14.0 °F 80% 29.59 in 1.4 mi NW 4.6 mph - N/A   Overcast
7:25 PM 19.4 °F 9.5 °F 14.0 °F 80% 29.59 in 1.2 mi NW 8.1 mph - N/A   Mostly Cloudy
7:33 PM 19.4 °F 11.5 °F 14.0 °F 80% 29.58 in 1.2 mi NW 5.8 mph - N/A   Overcast
7:34 PM 19.4 °F 11.5 °F 14.0 °F 80% 29.58 in 1.4 mi NW 5.8 mph - N/A   Overcast
7:47 PM 19.4 °F 10.4 °F 12.2 °F 74% 29.58 in 1.8 mi NW 6.9 mph - N/A   Overcast
8:00 PM 19.4 °F 11.5 °F 12.2 °F 74% 29.73 in 1.8 mi NNW 5.8 mph - N/A   Overcast
8:24 PM 19.4 °F 11.5 °F 12.2 °F 74% 29.57 in 2.5 mi NNW 5.8 mph - N/A   Overcast
8:27 PM 19.4 °F 10.4 °F 12.2 °F 74% 29.57 in 4.0 mi NNW 6.9 mph - N/A   Overcast
9:00 PM 19.4 °F 14.3 °F 12.2 °F 74% 29.70 in 9.0 mi NNW 3.5 mph - N/A   Overcast
9:04 PM 19.4 °F 14.3 °F 12.2 °F 74% 29.55 in 9.0 mi NNW 3.5 mph - N/A   Overcast
9:41 PM 21.2 °F 13.6 °F 12.2 °F 68% 29.54 in 9.0 mi NNW 5.8 mph - N/A   Overcast
10:00 PM 20 °F - 11 °F 58% 29.68 in 9 mi NNW 4.6 mph - -   Overcast
10:00 PM 21.2 °F 14.9 °F 12.2 °F 68% 29.68 in 9.0 mi NNW 4.6 mph - N/A   Overcast
10:20 PM 19.4 °F 12.8 °F 12.2 °F 74% 29.53 in 5.0 mi NW 4.6 mph - N/A   Overcast
10:39 PM 19.4 °F 12.8 °F 12.2 °F 74% 29.53 in 2.5 mi NNW 4.6 mph - N/A   Mostly Cloudy
10:57 PM 19.4 °F 14.3 °F 12.2 °F 74% 29.53 in 2.5 mi North 3.5 mph - N/A   Mostly Cloudy
10:58 PM 19.4 °F - 12.2 °F 74% 29.53 in 7.0 mi NNE 2.3 mph - N/A   Mostly Cloudy
11:00 PM 19.4 °F - 12.2 °F 74% 29.67 in 8.0 mi NNE 2.3 mph - N/A   Scattered Clouds
11:22 PM 19.4 °F 14.3 °F 12.2 °F 74% 29.53 in 9.0 mi North 3.5 mph - N/A   Overcast